Wind_Speed
23 22 21 22 24 17 14 10 9 9 7 7 10 9 9 7 7 10 13 12 11 9 5 6 11 10 12 10 12 10 10 4 2 10 8 10 15 15 18 20 20 21 21 22 21
24 22 24 22 22 17 10 10 11 9 8 8 9 12 10 8 7 10 11 15 15 11 6 3 4 11 13 10 9 8 9 6 8 8 8 9 12 13 15 18 19 20 20 22 23
25 24 24 23 18 11 10 10 11 10 10 9 10 13 11 8 8 9 11 16 17 14 10 6 6 9 14 8 5 8 6 6 5 5 7 8 8 11 13 15 15 18 20 23 23
27 25 23 22 22 17 15 13 13 12 11 11 11 11 11 9 8 9 12 15 17 17 14 10 9 9 11 5 5 5 5 2 3 5 5 6 6 8 10 12 11 13 17 20 20
28 23 24 22 20 19 16 16 13 13 11 11 11 11 12 9 9 10 12 14 16 14 15 15 14 14 16 12 7 6 2 1 2 5 4 5 5 6 8 12 14 15 15 17 20
29 30 24 22 21 20 18 16 14 14 12 11 11 12 11 11 11 12 13 14 16 16 19 19 18 18 18 14 13 5 5 4 4 6 6 5 4 4 5 7 11 14 16 17 19
29 27 27 27 23 21 19 19 16 15 14 11 11 12 12 12 13 13 13 14 14 17 19 19 20 21 18 14 10 5 4 6 7 8 5 2 5 2 3 2 6 10 16 19 21
31 29 28 29 24 22 21 21 17 15 12 10 10 13 13 13 14 13 12 13 14 16 18 17 17 18 19 17 12 11 5 5 13 10 8 5 2 12 5 4 7 10 15 20 24
33 31 31 29 26 24 21 24 21 19 16 11 11 13 14 14 15 14 13 12 13 14 18 18 15 16 15 16 12 12 6 9 9 12 9 8 6 12 8 5 6 8 12 19 26
35 34 32 33 31 28 25 22 25 23 21 17 14 14 14 16 17 16 15 14 13 13 15 18 19 16 15 16 12 14 12 10 12 10 7 5 8 11 6 4 3 7 13 20 30
37 36 34 34 31 30 27 26 23 23 26 25 20 16 15 16 18 18 17 15 15 13 13 15 18 18 16 19 23 20 15 15 15 12 8 9 9 9 8 10 11 11 17 23 27
37 37 35 33 32 30 28 28 26 24 23 21 22 20 18 17 18 20 20 19 17 16 14 14 16 20 17 17 19 16 15 13 15 11 8 9 13 15 12 13 14 18 18 21 21
37 38 37 35 33 31 31 29 27 25 24 23 21 23 19 18 19 21 22 21 20 18 17 17 20 17 16 16 16 13 13 16 14 10 10 9 13 18 15 15 17 19 18 21 21
38 38 37 36 35 32 30 30 29 26 26 26 25 26 23 19 19 20 22 22 21 21 20 20 19 17 15 15 14 12 13 15 16 11 9 13 6 24 17 17 15 16 17 19 22
38 39 38 36 35 33 31 30 28 27 29 30 28 25 23 22 18 19 22 23 24 23 21 23 20 18 15 16 15 16 12 14 17 15 16 18 13 15 18 19 15 17 16 19 21
36 39 40 37 36 34 34 34 31 30 33 30 29 28 26 25 23 20 22 23 25 24 25 23 21 19 19 17 17 17 14 14 16 15 14 21 15 13 14 15 16 13 14 18 21
30 36 37 39 37 36 36 35 34 37 35 32 29 27 28 28 26 23 21 22 24 23 24 24 23 22 21 19 19 17 15 9 10 11 11 20 14 15 18 12 11 10 14 18 21
23 30 33 35 37 37 36 36 39 37 34 35 32 31 27 29 28 27 26 23 24 24 26 24 24 22 22 20 19 17 14 11 11 11 11 13 8 11 13 10 9 11 14 16 14
20 21 25 30 34 35 34 36 36 34 34 33 33 31 32 31 30 29 27 27 24 24 24 24 23 24 23 22 20 20 18 17 16 19 14 11 13 13 11 7 9 10 13 11 11
24 24 23 24 28 31 33 34 33 33 34 34 34 35 33 35 32 30 30 26 23 24 25 27 26 25 25 23 22 23 19 16 15 13 9 14 11 7 9 6 7 10 8 11 15
29 26 26 27 28 30 31 32 30 29 31 33 37 37 38 36 35 32 30 27 25 24 27 26 25 25 25 24 20 23 22 19 14 15 10 9 7 7 7 6 5 8 11 14 14
23 27 30 30 29 32 30 30 27 28 29 31 34 40 40 40 36 35 31 27 28 27 25 25 25 27 21 28 25 24 21 21 15 18 15 11 11 10 9 7 6 9 13 16 20
24 25 26 29 33 32 33 32 30 28 29 31 33 40 43 41 37 37 34 31 26 28 28 26 26 25 26 26 25 23 23 22 20 19 15 9 11 13 6 9 10 11 16 18 21
23 26 28 29 30 33 32 35 34 32 30 31 31 34 42 43 40 39 34 32 30 27 25 29 29 26 19 17 20 22 20 22 21 15 14 11 11 16 12 13 13 15 19 20 22
23 26 29 32 33 31 33 33 33 35 35 32 31 31 37 43 43 37 36 34 32 31 28 29 28 25 25 26 26 21 21 22 24 20 17 16 13 20 20 22 22 22 20 22 22
24 26 27 31 34 34 34 33 34 37 36 35 32 32 36 39 39 43 40 35 36 32 30 25 28 29 27 26 28 28 26 26 30 30 26 22 21 23 19 21 22 20 19 22 26
21 24 25 27 31 34 37 35 35 36 37 39 37 35 31 32 41 39 38 38 35 32 30 28 27 28 28 26 34 34 31 28 27 26 21 19 23 22 20 24 25 23 23 26 30
Wind_Direction
218 222 232 236 246 251 264 226 206 223 242 241 212 232 256 279 251 235 209 205 221 211 173 166 163 152 152 138 141 134 77 51 89 87 61 63 68 61 60 59 53 52 50 48 41
221 223 230 242 253 262 241 220 207 223 238 241 226 225 253 268 248 240 202 191 212 213 200 208 167 148 154 154 147 146 115 166 124 110 88 63 63 58 55 55 52 47 46 47 43
221 224 234 253 257 239 237 231 218 228 235 243 231 228 242 254 231 211 196 190 205 212 209 201 181 168 156 145 145 174 165 133 126 144 87 72 62 57 45 43 41 54 48 43 41
222 231 239 240 252 257 226 234 226 228 231 240 234 236 243 238 218 199 195 191 200 209 207 201 183 180 169 160 169 207 193 125 121 147 131 96 55 35 37 40 36 35 38 37 30
230 230 235 241 248 239 229 233 233 230 230 235 231 230 238 219 202 192 190 191 198 192 190 192 183 176 184 178 174 207 215 253 171 184 200 127 81 49 29 27 21 17 19 25 21
231 232 228 236 244 234 228 234 235 232 231 231 230 226 225 216 203 195 195 197 192 170 178 177 172 173 170 169 186 167 224 282 225 184 148 106 81 40 18 23 7 360 7 9 11
226 229 232 231 234 237 228 231 227 230 228 225 225 226 225 218 209 205 198 200 199 170 176 172 172 177 168 169 165 166 205 258 239 204 193 143 42 56 42 344 340 349 355 353 350
226 225 227 225 230 239 229 227 223 225 224 223 224 226 222 221 216 211 207 205 201 182 176 180 178 178 181 171 168 201 229 206 252 209 205 216 239 289 329 333 320 332 348 341 340
228 227 226 227 228 231 236 223 222 226 230 233 232 228 225 220 216 212 208 210 207 199 183 180 186 189 191 181 199 228 184 236 235 218 219 240 237 276 296 349 320 330 336 333 335
228 229 229 230 233 233 235 235 226 227 232 231 238 234 230 224 217 212 209 205 203 202 194 184 187 205 211 201 215 238 235 248 242 233 229 257 290 288 289 333 331 350 342 329 345
226 228 229 230 232 233 233 237 236 231 236 237 236 241 233 229 223 216 211 211 207 200 197 188 195 201 211 217 216 229 233 231 239 253 269 280 290 275 279 305 330 334 334 321 341
227 228 229 230 231 233 232 236 236 234 235 237 232 234 234 231 226 221 217 213 215 207 200 197 199 211 219 219 229 232 241 242 252 256 259 267 299 308 297 304 318 322 318 327 340
228 229 228 230 230 231 232 233 234 232 232 236 236 230 228 228 226 221 219 218 219 218 211 209 217 212 217 230 234 234 236 245 226 260 282 289 314 310 305 307 317 323 338 336 331
230 229 229 229 229 229 231 232 234 233 234 234 233 231 227 230 226 224 222 223 222 221 220 220 221 224 222 235 241 244 243 254 258 254 254 289 255 297 290 301 315 316 329 326 325
232 230 229 228 229 228 229 231 231 230 233 231 231 229 227 230 231 225 223 221 221 221 221 226 225 228 231 239 245 222 252 255 263 261 269 292 287 266 291 301 321 327 329 322 324
234 230 229 228 228 227 228 231 230 230 234 235 231 232 230 230 232 231 226 223 224 222 223 230 231 231 234 239 247 256 261 266 273 262 280 265 280 284 273 300 310 318 321 319 317
235 229 229 229 229 228 227 229 231 231 233 234 235 233 232 231 233 235 230 227 228 223 224 228 230 231 232 236 244 252 263 264 268 266 262 265 277 233 284 305 303 315 323 319 320
230 227 226 227 228 230 229 231 231 231 233 235 235 233 234 233 233 233 235 230 226 221 223 225 229 230 232 231 238 240 230 224 256 257 254 277 271 261 298 304 320 323 319 313 321
224 225 225 227 227 228 229 230 233 234 232 234 232 231 231 232 235 233 233 234 231 224 223 225 225 229 230 230 228 243 237 228 239 249 259 256 269 286 295 308 312 320 318 315 329
229 225 223 225 226 226 228 230 232 232 232 231 229 227 227 229 230 232 233 233 233 230 223 223 225 229 232 231 230 232 238 249 258 236 242 266 249 233 290 295 315 321 311 312 323
230 227 225 226 226 227 227 228 227 226 227 226 226 226 225 225 226 227 232 229 227 228 227 227 224 235 231 232 231 235 236 241 222 238 236 261 270 252 240 271 308 317 311 311 320
234 233 228 226 228 230 228 224 224 222 224 225 225 225 223 224 224 226 228 223 221 229 230 227 226 230 234 234 233 235 227 239 239 270 244 220 248 258 236 270 307 314 310 313 324
238 234 231 231 229 228 227 226 222 221 222 225 225 223 223 223 220 224 222 224 219 225 229 229 229 229 233 241 240 241 239 237 234 227 246 224 241 246 237 265 279 290 300 309 318
241 237 233 232 231 230 227 225 226 224 223 227 228 226 224 222 221 221 222 221 220 222 226 230 231 227 228 246 235 247 244 231 225 236 249 232 246 250 244 271 283 294 297 303 313
249 239 235 234 232 231 230 227 227 224 225 224 229 230 225 222 224 222 223 223 224 226 227 231 233 231 230 221 243 239 233 220 224 230 228 255 219 253 268 277 290 305 300 302 308
240 236 233 234 232 232 230 228 226 224 223 224 225 230 226 222 222 220 221 222 225 227 230 230 233 231 232 237 235 233 232 226 223 229 234 244 256 269 278 289 300 302 298 300 305
234 227 226 231 234 232 230 227 228 227 223 225 224 228 229 220 222 224 223 223 225 224 226 231 233 230 232 236 224 231 234 230 232 235 243 250 253 260 281 291 295 296 299 302 304
Height
5905 5907 5909 5910 5911 5915 5916 5917 5918 5920 5920 5920 5921 5923 5924 5926 5926 5927 5930 5933 5932 5934 5937 5939 5942 5943 5944 5946 5946 5946 5949 5952 5950 5947 5947 5944 5942 5941 5939 5937 5936 5934 5932 5930 5927
5902 5904 5906 5907 5909 5912 5913 5914 5916 5918 5919 5919 5920 5922 5923 5924 5925 5926 5929 5931 5932 5934 5937 5938 5939 5942 5944 5946 5947 5947 5951 5951 5948 5947 5946 5946 5944 5943 5941 5939 5938 5935 5933 5931 5929
5898 5901 5903 5905 5907 5909 5911 5913 5913 5915 5917 5917 5918 5920 5921 5923 5924 5925 5927 5929 5931 5932 5936 5938 5940 5941 5944 5945 5946 5948 5952 5950 5949 5949 5947 5946 5946 5944 5942 5941 5940 5938 5935 5932 5931
5894 5898 5900 5902 5904 5907 5909 5910 5912 5913 5915 5916 5916 5917 5919 5921 5924 5924 5925 5927 5929 5931 5934 5937 5939 5940 5942 5944 5945 5947 5949 5950 5950 5949 5948 5947 5946 5945 5943 5943 5941 5939 5936 5934 5933
5890 5894 5897 5899 5901 5904 5906 5908 5909 5911 5912 5914 5915 5916 5918 5920 5921 5923 5924 5925 5927 5930 5933 5935 5937 5940 5942 5945 5945 5947 5947 5949 5949 5949 5948 5948 5947 5945 5944 5943 5941 5939 5937 5935 5933
5886 5890 5893 5895 5898 5901 5903 5905 5907 5909 5909 5911 5912 5914 5916 5918 5920 5922 5923 5925 5926 5928 5931 5933 5936 5939 5941 5943 5945 5946 5947 5948 5949 5949 5949 5948 5947 5946 5945 5944 5942 5940 5938 5935 5934
5882 5885 5889 5892 5895 5897 5900 5902 5904 5906 5908 5909 5910 5911 5914 5917 5918 5920 5921 5924 5926 5928 5930 5933 5935 5938 5940 5942 5944 5946 5949 5950 5949 5949 5949 5949 5949 5947 5946 5944 5942 5940 5937 5934 5934
5876 5880 5884 5888 5891 5893 5896 5898 5901 5903 5905 5905 5907 5909 5911 5913 5916 5918 5920 5922 5924 5927 5930 5933 5935 5937 5938 5941 5944 5947 5948 5953 5949 5948 5948 5949 5953 5948 5946 5944 5942 5940 5938 5933 5930
5871 5875 5879 5883 5887 5890 5893 5895 5898 5900 5902 5904 5905 5907 5909 5911 5913 5915 5918 5921 5923 5925 5929 5932 5934 5937 5939 5941 5946 5946 5953 5950 5949 5948 5947 5948 5950 5947 5945 5944 5942 5940 5937 5932 5927
5865 5869 5873 5877 5882 5886 5889 5892 5894 5897 5900 5902 5903 5906 5907 5909 5911 5913 5916 5918 5921 5923 5927 5930 5933 5935 5938 5940 5946 5949 5947 5948 5945 5946 5946 5947 5947 5946 5944 5943 5941 5940 5937 5932 5928
5859 5863 5867 5871 5876 5880 5885 5888 5891 5894 5896 5898 5901 5902 5904 5906 5908 5910 5913 5916 5919 5921 5924 5927 5930 5932 5934 5937 5937 5940 5942 5942 5943 5943 5945 5945 5945 5944 5943 5941 5940 5938 5936 5932 5929
5852 5856 5861 5865 5869 5873 5878 5882 5886 5890 5892 5894 5897 5899 5901 5903 5906 5908 5911 5914 5916 5918 5921 5925 5926 5927 5930 5933 5935 5938 5939 5941 5941 5941 5943 5944 5944 5942 5941 5939 5939 5936 5934 5931 5927
5845 5850 5855 5859 5864 5869 5872 5877 5880 5884 5888 5890 5892 5894 5897 5900 5902 5905 5908 5910 5913 5916 5919 5921 5923 5925 5929 5931 5933 5936 5938 5939 5941 5939 5941 5942 5943 5939 5938 5937 5937 5934 5932 5929 5926
5837 5842 5847 5852 5859 5862 5866 5870 5875 5880 5883 5886 5888 5890 5894 5896 5899 5901 5904 5908 5910 5913 5916 5918 5920 5922 5926 5928 5931 5934 5934 5934 5936 5939 5945 5940 5945 5939 5936 5934 5934 5933 5931 5927 5924
5829 5834 5840 5845 5850 5856 5861 5864 5869 5875 5877 5880 5883 5886 5890 5893 5896 5898 5901 5903 5906 5909 5914 5915 5917 5920 5923 5925 5927 5932 5931 5932 5933 5936 5937 5938 5939 5941 5934 5931 5931 5931 5929 5926 5923
5821 5826 5832 5838 5843 5849 5854 5858 5864 5869 5869 5873 5877 5881 5885 5888 5890 5894 5897 5899 5902 5906 5909 5912 5915 5917 5919 5922 5924 5925 5928 5930 5931 5934 5936 5933 5935 5937 5933 5931 5929 5929 5927 5924 5919
5814 5819 5824 5831 5837 5842 5846 5851 5857 5859 5864 5868 5872 5876 5880 5883 5886 5889 5892 5895 5899 5904 5906 5908 5911 5913 5916 5919 5921 5923 5925 5929 5932 5933 5934 5929 5930 5933 5928 5929 5927 5927 5925 5921 5916
5810 5813 5818 5823 5829 5833 5839 5844 5846 5851 5858 5861 5866 5871 5874 5877 5881 5884 5887 5891 5895 5899 5901 5904 5907 5909 5912 5915 5917 5919 5924 5928 5929 5930 5931 5925 5927 5927 5925 5925 5925 5923 5921 5917 5914
5805 5808 5812 5816 5821 5825 5831 5834 5839 5845 5849 5854 5860 5865 5868 5871 5875 5878 5882 5886 5890 5894 5898 5900 5903 5905 5907 5910 5914 5914 5917 5921 5922 5923 5924 5926 5922 5922 5922 5923 5922 5920 5918 5914 5911
5799 5803 5807 5810 5814 5818 5822 5827 5832 5837 5842 5847 5852 5857 5861 5864 5869 5872 5876 5882 5886 5889 5892 5894 5898 5901 5902 5906 5908 5910 5914 5917 5918 5922 5922 5921 5920 5924 5919 5919 5918 5916 5914 5912 5909
5793 5797 5801 5804 5808 5811 5816 5820 5825 5830 5835 5839 5843 5849 5852 5857 5863 5867 5872 5877 5880 5883 5886 5891 5894 5896 5898 5901 5905 5906 5908 5912 5916 5917 5921 5920 5920 5917 5916 5915 5915 5912 5911 5909 5906
5786 5790 5793 5797 5801 5805 5809 5814 5820 5823 5828 5831 5835 5840 5845 5849 5855 5861 5867 5871 5874 5878 5882 5886 5889 5891 5896 5894 5898 5901 5904 5907 5911 5912 5913 5916 5917 5913 5912 5912 5910 5909 5907 5905 5904
5780 5783 5786 5790 5793 5797 5803 5807 5812 5817 5821 5824 5828 5831 5836 5842 5850 5853 5859 5864 5869 5872 5876 5881 5884 5887 5889 5892 5893 5896 5899 5902 5905 5907 5909 5913 5913 5909 5909 5908 5906 5906 5903 5901 5898
5773 5776 5779 5782 5787 5790 5796 5800 5806 5810 5814 5817 5822 5825 5829 5835 5841 5847 5853 5859 5863 5867 5871 5874 5877 5882 5889 5891 5892 5891 5894 5897 5901 5904 5906 5908 5905 5905 5906 5905 5904 5902 5899 5897 5895
5765 5768 5771 5774 5779 5783 5788 5794 5797 5803 5806 5811 5815 5819 5823 5827 5834 5841 5847 5852 5857 5861 5864 5867 5871 5876 5880 5882 5883 5887 5889 5892 5895 5900 5903 5903 5900 5899 5901 5901 5900 5898 5896 5894 5892
5759 5761 5763 5767 5771 5775 5780 5785 5790 5793 5800 5804 5809 5811 5813 5821 5828 5830 5837 5844 5849 5855 5858 5861 5865 5870 5873 5875 5878 5881 5884 5886 5889 5892 5895 5897 5896 5896 5896 5896 5895 5894 5892 5890 5888
5752 5754 5756 5759 5763 5767 5771 5777 5781 5786 5792 5796 5801 5803 5808 5814 5816 5825 5831 5838 5842 5848 5852 5855 5859 5864 5867 5870 5873 5875 5878 5882 5885 5888 5890 5891 5890 5890 5891 5890 5890 5889 5887 5886 5883